Location: Mactaquac Provincial Park
(45.9573°N, 66.8897°W)
Time: 03:55:13
(UTC-04:00)

Cosmos 1867 - Visible Passes

Search period start: 21 November 2017 00:00
Search period end: 01 December 2017 00:00
Orbit: 778 x 798 km, 65.0° (Epoch: 20 November)

Date Brightness Start Highest point End Pass type
(mag) Time Alt. Az. Time Alt. Az. Time Alt. Az.
21 Nov 6.8 17:48:27 10° WNW 17:52:04 18° WSW 17:55:40 10° SSW visible
22 Nov 5.9 06:47:45 10° S 06:52:23 29° ESE 06:57:02 10° NE visible
22 Nov 6.4 17:16:16 10° WNW 17:20:37 25° WSW 17:24:55 10° SSW visible
23 Nov 6.3 06:16:50 10° SSE 06:20:54 22° ESE 06:24:59 10° ENE visible
24 Nov 6.6 05:46:14 10° SE 05:49:27 16° ESE 05:52:41 10° ENE visible
25 Nov 6.8 05:16:21 10° ESE 05:18:03 11° ESE 05:19:45 10° E visible
25 Nov 3.9 06:55:16 10° SSW 07:00:41 74° ESE 07:06:09 10° NE visible
26 Nov 4.4 06:23:47 10° SSW 06:29:05 56° ESE 06:34:25 10° NE visible
27 Nov 4.9 05:52:26 10° S 05:57:30 41° ESE 06:02:36 10° NE visible
28 Nov 5.4 05:21:16 10° S 05:25:58 31° ESE 05:30:43 10° NE visible
28 Nov 3.8 07:04:07 10° WSW 07:09:22 49° NW 07:14:41 10° NNE visible
29 Nov 5.8 04:50:16 10° SSE 04:54:29 23° ESE 04:58:42 10° ENE visible
29 Nov 3.6 06:32:15 10° SW 06:37:38 63° NW 06:43:05 10° NNE visible
30 Nov 6.1 04:19:35 10° SSE 04:23:01 17° ESE 04:26:29 10° ENE visible
30 Nov 3.5 06:00:30 10° SW 06:05:56 81° NW 06:11:27 10° NE visible
